EDT,Max TemperatureF,Mean TemperatureF,Min TemperatureF,Max Dew PointF,MeanDew PointF,Min DewpointF,Max Humidity, Mean Humidity, Min Humidity, Max Sea Level PressureIn, Mean Sea Level PressureIn, Min Sea Level PressureIn, Max VisibilityMiles, Mean VisibilityMiles, Min VisibilityMiles, Max Wind SpeedMPH, Mean Wind SpeedMPH, Max Gust SpeedMPH,PrecipitationIn, CloudCover, Events, WindDirDegrees
2013-4-1,67,52,36,50,39,31,99,63,33,30.02,29.90,29.86,10,9,1,16,3,24,0.00,4,Rain,299
2013-4-2,58,44,29,30,20,9,88,43,15,30.19,30.11,30.03,10,10,10,13,5,20,0.00,0,,327
2013-4-3,57,42,26,25,17,11,83,40,18,30.33,30.26,30.17,10,10,10,10,2,18,0.00,0,,358
2013-4-4,43,38,33,33,23,14,97,62,34,30.40,30.26,30.01,10,7,1,9,3,,1.00,4,Rain-Snow,36
2013-4-5,63,48,34,44,35,27,98,69,26,30.07,29.98,29.93,10,8,2,13,4,18,0.36,4,Rain,335
2013-4-6,66,48,29,35,30,28,97,57,25,30.29,30.21,30.07,10,10,10,9,2,,0.00,0,,122
2013-4-7,72,52,33,42,38,32,92,56,32,30.27,30.19,30.10,10,10,10,12,3,20,0.00,0,,215
2013-4-8,80,61,42,50,46,40,95,59,29,30.17,30.11,30.05,10,10,10,13,3,21,0.00,1,,216
2013-4-9,86,67,48,54,50,46,95,56,26,30.20,30.13,30.08,10,10,10,9,3,23,0.00,0,,228
2013-4-10,88,72,57,57,54,49,85,51,26,30.11,30.04,29.96,10,10,10,10,3,18,0.00,0,,215
2013-4-11,81,72,62,64,57,53,82,61,38,29.98,29.90,29.78,10,10,10,14,5,25,0.00,2,Rain-Thunderstorm,208
2013-4-12,82,71,58,66,55,37,97,63,28,29.82,29.71,29.64,10,9,2,16,6,29,1.28,5,Rain-Thunderstorm,245
2013-4-13,76,58,40,42,35,28,88,44,17,30.04,29.95,29.82,10,10,10,16,7,24,0.00,0,,297
2013-4-14,80,58,37,44,37,32,95,50,18,30.14,30.07,30.03,10,10,10,9,1,16,0.00,1,,180
2013-4-15,66,60,53,55,54,46,96,85,47,30.26,30.16,30.08,10,10,3,9,4,21,0.21,8,Rain,44
2013-4-16,78,68,57,60,57,55,93,74,44,30.34,30.26,30.20,10,9,2,6,1,,0.00,6,,201
2013-4-17,81,68,55,62,58,54,97,75,45,30.25,30.20,30.15,10,10,7,6,1,,0.00,4,,151
2013-4-18,80,68,57,61,57,52,98,71,38,30.20,30.13,30.02,10,10,7,10,2,21,0.00,6,Rain,182
2013-4-19,75,66,55,66,61,41,93,80,59,30.02,29.85,29.71,10,10,1,17,7,31,0.58,7,Rain-Thunderstorm,206
2013-4-20,63,51,39,42,31,25,89,49,26,30.31,30.13,29.90,10,10,10,16,9,25,0.00,0,,331
2013-4-21,61,46,32,38,33,29,98,60,36,30.54,30.46,30.31,10,10,10,12,3,18,0.00,1,,77
2013-4-22,62,48,34,38,32,24,94,56,23,30.50,30.41,30.30,10,10,10,10,3,20,0.00,1,,51
2013-4-23,71,60,48,50,44,37,84,61,41,30.33,30.23,30.13,10,10,10,8,3,,0.00,4,,74
2013-4-24,73,59,45,55,52,45,99,73,48,30.15,30.07,29.97,10,10,4,14,3,25,0.00,2,,219
2013-4-25,71,56,40,52,34,23,86,50,19,30.33,30.23,30.08,10,10,10,15,8,21,0.00,2,,339
2013-4-26,70,51,32,47,36,31,98,61,24,30.47,30.40,30.33,10,10,7,8,1,,0.00,0,,100
2013-4-27,69,58,47,57,50,41,99,78,42,30.39,30.35,30.29,10,9,2,5,0,,0.03,6,Rain,103
2013-4-28,56,54,52,54,53,51,99,96,89,30.29,30.21,30.09,10,4,0,8,1,,0.72,8,Fog-Rain,135
2013-4-29,67,60,52,60,54,51,99,89,69,30.11,30.06,30.01,10,8,1,7,3,,0.39,7,Rain,43
2013-4-30,68,60,52,58,55,52,99,85,65,30.25,30.15,30.06,10,9,2,10,2,,0.00,8,,58